Location: Muenchen
(48.1800°N, 11.5800°E)
Time: 17:13:49
(UTC+02:00)

ISS - Visible Passes

Search period start: 24 May 2015 00:00
Search period end: 03 June 2015 00:00
Orbit: 399 x 404 km, 51.6° (Epoch: 24 May)

Date Brightness Start Highest point End Pass type
(mag) Time Alt. Az. Time Alt. Az. Time Alt. Az.
24 May -1.1 01:46:23 17° E 01:46:23 17° E 01:47:28 10° E visible
24 May -3.0 03:18:57 23° W 03:20:49 66° NNW 03:24:05 10° ENE visible
25 May -3.5 02:27:23 76° WSW 02:27:36 88° SSE 02:30:53 10° ENE visible
25 May -2.2 04:01:04 10° WNW 04:04:13 43° N 04:07:23 10° ENE visible
26 May -2.0 01:35:44 30° E 01:35:44 30° E 01:37:38 10° ENE visible
26 May -2.4 03:08:18 14° W 03:10:54 49° N 03:14:06 10° ENE visible
27 May -0.7 00:44:01 12° E 00:44:01 12° E 00:44:17 10° E visible
27 May -2.9 02:16:34 37° W 02:17:36 61° NNW 02:20:51 10° ENE visible
27 May -2.1 03:51:09 10° WNW 03:54:19 44° N 03:57:29 10° ENE visible
28 May -3.1 01:24:42 67° NE 01:24:42 67° NE 01:27:36 10° ENE visible
28 May -2.1 02:57:49 10° WNW 03:00:58 43° N 03:04:06 10° ENE visible
28 May -2.9 04:34:24 10° WNW 04:37:40 68° NNE 04:40:56 10° ESE visible
29 May -1.8 00:32:38 27° E 00:32:38 27° E 00:34:19 10° ENE visible
29 May -2.3 02:05:09 15° W 02:07:36 47° N 02:10:46 10° ENE visible
29 May -2.5 03:41:08 10° WNW 03:44:20 52° NNE 03:47:33 10° E visible
29 May -1.2 23:40:08 16° E 23:40:08 16° E 23:40:56 10° ENE visible
30 May -2.7 01:12:37 26° W 01:14:14 57° NNW 01:17:28 10° ENE visible
30 May -2.2 02:47:48 10° WNW 02:50:58 45° N 02:54:07 10° E visible
30 May -3.4 04:24:17 10° WNW 04:27:33 77° SSW 04:30:49 10° ESE visible
30 May -1.9 22:45:38 20° ESE 22:45:38 20° ESE 22:47:24 10° E visible
31 May -3.3 00:17:39 10° WSW 00:20:54 78° NNW 00:24:10 10° ENE visible
31 May -2.1 01:54:26 10° WNW 01:57:34 43° N 02:00:42 10° ENE visible
31 May -3.1 03:30:59 10° WNW 03:34:15 73° NNE 03:37:31 10° ESE visible
31 May -1.5 21:49:55 10° S 21:51:38 14° SE 21:53:26 10° ESE visible
31 May -3.5 23:24:22 10° WSW 23:27:36 71° SSE 23:30:51 10° ENE visible
01 Jun -2.2 01:00:59 10° W 01:04:09 45° N 01:07:19 10° ENE visible
01 Jun -2.6 02:37:40 10° WNW 02:40:53 55° NNE 02:44:06 10° E visible
01 Jun -3.0 04:14:09 10° WNW 04:17:16 42° SSW 04:20:22 10° SE visible
01 Jun -3.0 22:31:15 10° SW 22:34:20 43° SSE 22:37:28 10° ENE visible
02 Jun -2.6 00:07:32 10° W 00:10:44 54° NNW 00:13:57 10° ENE visible
02 Jun -2.2 01:44:19 10° WNW 01:47:29 46° N 01:50:38 10° E visible
02 Jun -3.5 03:20:46 10° WNW 03:24:01 69° SSW 03:27:16 10° ESE visible
02 Jun -3.1 23:14:06 10° WSW 23:17:21 72° NNW 23:20:37 10° ENE visible
